PBO Station Position Time Series. Reference Frame : NAM14
Format Version,1.1.1
4-character ID,P823
Station name,ForestGrveOR2022
Begin Date, 2022-06-30
End Date, 2023-03-29
Release Date, 2023-06-22
Reference position, 45.5376361733 North Latitude, -123.1573688070 East Longitude, 78.07245 meters elevation,
Date, North (mm), East (mm), Vertical (mm), North Std. Deviation (mm), East Std. Deviation (mm),              Vertical Std. Deviation (mm), Quality,
2022-06-30,0.00, 0.00, 0.00, 2.00, 1.47, 7.13, suppf,
2022-07-01,-1.10, 0.04, -1.86, 1.96, 1.43, 6.84, suppf,
2022-07-02,-1.12, -0.63, -2.30, 1.96, 1.44, 6.92, suppf,
2022-07-03,-1.08, 0.49, -2.91, 1.97, 1.45, 6.98, suppf,
2022-07-04,-1.22, 0.20, 1.68, 2.10, 1.49, 7.33, suppf,
2022-07-05,-0.96, 0.05, -4.30, 2.13, 1.52, 7.48, suppf,
2022-07-06,0.39, 0.59, -0.16, 2.06, 1.48, 7.23, suppf,
2022-07-07,-1.94, -0.05, -1.32, 1.98, 1.45, 7.01, suppf,
2022-07-08,-1.18, -1.22, -3.25, 1.97, 1.46, 7.04, suppf,
2022-07-09,-0.88, 0.58, -3.84, 1.99, 1.45, 7.02, suppf,
2022-07-10,-2.00, 0.56, -9.22, 1.99, 1.46, 7.06, suppf,
2022-07-11,-1.50, 0.23, -0.97, 1.97, 1.43, 6.90, suppf,
2022-07-12,0.24, -0.19, -0.01, 1.98, 1.44, 6.97, suppf,
2022-07-13,-0.57, 0.82, -0.84, 1.98, 1.45, 7.01, suppf,
2022-07-14,-0.87, 1.95, -3.07, 2.02, 1.45, 7.04, suppf,
2022-07-15,-1.85, 0.89, -5.12, 2.02, 1.46, 7.05, suppf,
2022-07-16,-0.53, 0.78, -3.81, 1.99, 1.46, 7.08, suppf,
2022-07-17,-0.33, 1.13, 2.81, 1.96, 1.43, 6.86, suppf,
2022-07-18,-0.88, 0.10, -6.55, 1.94, 1.43, 6.85, suppf,
2022-07-19,0.33, -0.24, -6.05, 1.96, 1.44, 6.93, suppf,
2022-07-20,1.41, 0.54, -2.77, 1.97, 1.45, 6.95, suppf,
2022-07-21,-1.71, 0.53, -3.05, 1.96, 1.43, 6.89, suppf,
2022-07-22,-0.49, 0.64, 3.08, 1.95, 1.44, 6.87, suppf,
2022-07-23,-1.39, 0.62, -1.80, 1.95, 1.43, 6.86, suppf,
2022-07-24,0.23, 0.76, -9.94, 1.95, 1.44, 6.88, suppf,
2022-07-25,-0.34, 0.67, 2.54, 1.96, 1.44, 6.92, suppf,
2022-07-26,0.43, 0.29, 0.29, 1.98, 1.45, 6.97, suppf,
2022-07-27,-0.61, 1.50, 1.06, 1.96, 1.45, 6.96, suppf,
2022-07-28,-0.74, 0.36, 0.39, 1.95, 1.43, 6.86, suppf,
2022-07-29,-1.10, 1.20, -2.42, 1.99, 1.48, 7.09, suppf,
2022-07-30,1.17, 0.13, -2.64, 1.99, 1.45, 6.98, suppf,
2022-07-31,0.36, -0.35, 0.66, 1.97, 1.44, 6.94, suppf,
2022-08-01,-0.04, 0.40, -1.34, 1.96, 1.44, 6.90, suppf,
2022-08-02,-0.85, 1.92, -2.47, 1.99, 1.49, 7.17, suppf,
2022-08-03,-1.39, -0.03, 3.97, 1.98, 1.47, 7.02, suppf,
2022-08-04,-0.73, 1.89, 0.76, 2.02, 1.51, 7.24, suppf,
2022-08-05,1.20, 0.29, -9.09, 1.96, 1.45, 6.91, suppf,
2022-08-06,0.58, -0.78, -1.05, 1.95, 1.43, 6.84, suppf,
2022-08-07,-0.49, 0.33, -0.53, 1.96, 1.45, 6.92, suppf,
2022-08-08,-0.73, 0.75, 4.31, 1.96, 1.45, 6.93, suppf,
2022-08-09,0.15, -0.17, 1.09, 1.97, 1.45, 6.95, suppf,
2022-08-10,-0.46, 0.03, 5.04, 1.99, 1.49, 7.12, suppf,
2022-08-11,-1.61, 0.44, -0.15, 2.00, 1.49, 7.03, suppf,
2022-08-12,-1.49, 0.26, 7.21, 2.02, 1.51, 7.14, suppf,
2022-08-13,-0.49, 0.56, -2.25, 1.95, 1.45, 6.91, suppf,
2022-08-14,-0.20, -0.02, -0.38, 1.93, 1.43, 6.76, suppf,
2022-08-15,-0.24, 0.90, 3.09, 1.97, 1.44, 6.88, suppf,
2022-08-16,0.26, 0.17, -5.48, 1.98, 1.46, 6.97, suppf,
2022-08-17,0.38, 0.01, 0.71, 1.96, 1.44, 6.88, suppf,
2022-08-18,-1.40, 0.12, -0.25, 1.97, 1.45, 6.94, suppf,
2022-08-19,0.19, -0.27, 3.56, 2.00, 1.46, 6.95, suppf,
2022-08-20,0.78, -0.10, 0.76, 1.94, 1.43, 6.80, suppf,
2022-08-21,-0.90, 0.16, 0.56, 1.96, 1.44, 6.85, suppf,
2022-08-22,-0.02, -0.54, 4.68, 1.96, 1.44, 6.85, suppf,
2022-08-23,-0.00, -0.08, 2.78, 2.10, 1.54, 7.37, suppf,
2022-08-24,-0.44, -0.12, -2.45, 2.11, 1.54, 7.39, suppf,
2022-08-25,0.54, 0.01, 7.34, 2.00, 1.48, 7.05, suppf,
2022-08-26,0.90, -0.64, -0.02, 2.01, 1.48, 7.10, suppf,
2022-08-27,0.54, -0.40, 9.27, 2.01, 1.48, 7.07, suppf,
2022-08-28,-0.45, -0.54, 3.31, 2.00, 1.47, 7.02, suppf,
2022-08-29,-0.26, -0.61, 7.82, 1.96, 1.43, 6.80, suppf,
2022-08-30,-0.02, -0.39, 9.54, 1.96, 1.44, 6.83, suppf,
2022-08-31,-0.81, -0.42, 4.68, 1.99, 1.45, 6.96, suppf,
2022-09-01,0.06, 0.33, 7.10, 1.95, 1.43, 6.79, suppf,
2022-09-02,-0.54, -0.26, 6.16, 1.95, 1.43, 6.77, suppf,
2022-09-03,-0.71, -0.27, 9.91, 1.99, 1.45, 6.92, suppf,
2022-09-04,-1.23, -0.56, 11.97, 2.02, 1.47, 7.08, suppf,
2022-09-05,0.09, -0.62, 3.99, 1.97, 1.44, 6.87, suppf,
2022-09-06,-0.47, -0.16, 6.34, 1.97, 1.43, 6.81, suppf,
2022-09-08,0.53, -0.24, 10.27, 2.02, 1.50, 7.16, suppf,
2022-09-09,1.50, 1.04, 8.74, 2.01, 1.46, 6.98, suppf,
2022-09-10,-0.05, 0.18, 7.36, 2.00, 1.46, 6.92, suppf,
2022-09-11,-0.63, -0.69, 6.21, 2.01, 1.48, 7.05, suppf,
2022-09-12,0.26, 0.69, 4.83, 2.06, 1.52, 7.33, suppf,
2022-09-13,0.06, 0.56, 6.64, 2.00, 1.46, 6.94, suppf,
2022-09-14,-0.59, -0.38, 9.43, 2.01, 1.50, 7.05, suppf,
2022-09-15,-0.60, 0.44, 7.22, 2.01, 1.49, 7.04, suppf,
2022-09-16,-0.19, 0.02, 4.79, 2.00, 1.45, 6.92, suppf,
2022-09-17,1.19, 0.61, 7.90, 1.97, 1.44, 6.85, suppf,
2022-09-18,0.33, 0.75, 11.38, 1.97, 1.44, 6.85, suppf,
2022-09-19,-0.83, 0.21, 7.26, 1.96, 1.43, 6.78, suppf,
2022-09-20,-0.13, 0.20, 8.86, 1.96, 1.43, 6.78, suppf,
2022-09-21,0.40, -0.26, 2.54, 1.98, 1.44, 6.86, suppf,
2022-09-22,-2.04, -0.01, -1.74, 2.03, 1.47, 7.02, suppf,
2022-09-23,-1.78, 1.07, 10.17, 2.02, 1.46, 6.94, suppf,
2022-09-24,-0.02, 1.94, -1.92, 2.01, 1.45, 6.97, suppf,
2022-09-25,-1.63, 0.60, 5.29, 1.96, 1.43, 6.82, suppf,
2022-09-26,-1.27, 0.94, 3.50, 1.97, 1.42, 6.80, suppf,
2022-09-27,-1.04, -0.44, 1.06, 1.98, 1.43, 6.83, suppf,
2022-09-28,1.88, -0.86, 20.48, 2.20, 1.62, 8.09, suppf,
2022-09-29,-1.64, -0.19, 3.16, 2.06, 1.50, 7.17, suppf,
2022-09-30,-0.61, 0.43, 0.74, 2.00, 1.45, 6.91, suppf,
2022-10-01,-0.49, 1.21, 3.28, 1.97, 1.42, 6.79, suppf,
2022-10-02,-1.39, 0.97, 5.20, 1.97, 1.43, 6.81, suppf,
2022-10-03,-1.26, 0.51, 3.12, 1.99, 1.43, 6.86, suppf,
2022-10-04,-1.45, 1.02, 1.15, 1.97, 1.43, 6.82, suppf,
2022-10-05,-1.02, 1.01, 2.98, 1.97, 1.42, 6.77, suppf,
2022-10-06,-1.76, 0.77, -1.73, 2.03, 1.44, 6.96, suppf,
2022-10-07,-1.17, 0.26, 1.26, 2.04, 1.44, 6.98, suppf,
2022-10-08,-1.08, 0.69, 0.24, 1.97, 1.42, 6.78, suppf,
2022-10-09,-1.44, -0.33, 1.47, 1.99, 1.43, 6.84, suppf,
2022-10-10,-2.92, -0.27, 1.85, 1.99, 1.43, 6.84, suppf,
2022-10-11,0.02, -1.34, 5.86, 2.03, 1.44, 6.92, suppf,
2022-10-12,-2.53, -0.70, 4.50, 2.05, 1.48, 7.02, suppf,
2022-10-13,-2.88, 0.18, 4.09, 2.04, 1.47, 7.03, suppf,
2022-10-14,-1.91, -0.86, 7.37, 1.99, 1.46, 6.92, suppf,
2022-10-15,-3.04, -0.21, 8.83, 1.98, 1.42, 6.81, suppf,
2022-10-16,-3.47, 0.48, 3.65, 1.97, 1.42, 6.80, suppf,
2022-10-17,-2.66, -0.21, 0.61, 1.97, 1.41, 6.76, suppf,
2022-10-18,-2.40, -0.27, -0.97, 2.08, 1.52, 7.25, suppf,
2022-10-19,-3.02, -0.99, -1.69, 2.12, 1.50, 7.24, suppf,
2022-10-20,-4.33, -0.80, 2.43, 2.04, 1.48, 7.10, suppf,
2022-10-21,-2.10, -0.99, 9.68, 2.01, 1.46, 6.97, suppf,
2022-10-22,-2.10, -2.56, 11.66, 1.99, 1.43, 6.89, suppf,
2022-10-23,-2.15, -1.89, 7.99, 1.99, 1.43, 6.86, suppf,
2022-10-24,-3.28, -2.43, 0.82, 2.00, 1.44, 6.94, suppf,
2022-10-25,-2.19, -0.77, -1.46, 2.00, 1.43, 6.93, suppf,
2022-10-26,-5.06, -0.41, 0.41, 2.10, 1.50, 7.20, suppf,
2022-10-27,-3.54, 1.09, -2.72, 2.09, 1.49, 7.16, suppf,
2022-10-28,-3.18, -0.62, -2.64, 2.06, 1.48, 7.15, suppf,
2022-10-29,-1.80, -0.32, 3.01, 1.99, 1.43, 6.89, suppf,
2022-10-30,-1.83, -0.95, -7.96, 2.00, 1.44, 6.98, suppf,
2022-10-31,-4.37, -2.80, 9.33, 1.99, 1.43, 6.89, suppf,
2022-11-01,-0.98, -1.48, -0.18, 1.99, 1.43, 6.90, suppf,
2022-11-02,-2.90, -1.55, -4.18, 2.02, 1.46, 7.02, suppf,
2022-11-03,-1.41, 0.26, -5.51, 2.04, 1.49, 7.10, suppf,
2022-11-04,-3.40, -1.58, -0.77, 2.03, 1.45, 7.02, suppf,
2022-11-05,-2.47, 1.75, -19.51, 2.04, 1.49, 7.28, suppf,
2022-11-06,-0.37, -1.01, -8.86, 1.99, 1.43, 6.90, suppf,
2022-11-07,-0.87, -2.57, -8.22, 2.01, 1.45, 6.95, suppf,
2022-11-08,-0.42, -2.48, -11.58, 2.00, 1.43, 6.89, suppf,
2022-11-09,-0.58, -1.36, -16.18, 2.00, 1.43, 6.95, suppf,
2022-11-10,-1.05, -0.81, -11.13, 2.00, 1.45, 6.97, suppf,
2022-11-11,-0.48, -0.62, -17.43, 1.99, 1.44, 6.94, suppf,
2022-11-12,-0.27, -1.11, -18.10, 2.00, 1.43, 6.90, suppf,
2022-11-13,-0.91, -0.72, -17.72, 2.00, 1.42, 6.87, suppf,
2022-11-14,-0.24, -0.50, -21.91, 2.03, 1.44, 6.94, suppf,
2022-11-15,0.38, 0.45, -20.27, 2.02, 1.44, 7.00, suppf,
2022-11-16,-0.18, -0.42, -22.84, 1.99, 1.43, 6.94, suppf,
2022-11-17,-0.30, -0.46, -21.91, 2.00, 1.42, 6.91, suppf,
2022-11-18,0.03, -1.37, -19.84, 2.00, 1.42, 6.93, suppf,
2022-11-19,0.12, -0.83, -17.61, 1.99, 1.42, 6.88, suppf,
2022-11-20,-0.29, -0.95, -17.30, 2.01, 1.44, 6.99, suppf,
2022-11-21,-0.34, -1.16, -16.15, 1.98, 1.42, 6.87, suppf,
2022-11-22,-1.34, -1.66, -14.33, 2.01, 1.44, 6.99, suppf,
2022-11-23,-0.93, -1.08, -21.63, 2.01, 1.43, 6.97, suppf,
2022-11-24,-0.56, -0.91, -18.28, 1.99, 1.43, 6.92, suppf,
2022-11-25,-1.02, -1.60, -19.83, 2.03, 1.46, 7.16, suppf,
2022-11-26,0.26, -1.52, -14.08, 2.03, 1.45, 7.13, suppf,
2022-11-27,-0.64, -1.78, -10.82, 2.00, 1.43, 6.94, suppf,
2022-11-28,-0.52, -1.53, -5.79, 2.05, 1.46, 7.10, suppf,
2022-11-29,-0.26, -1.60, -12.67, 2.00, 1.42, 6.91, suppf,
2022-11-30,-1.65, -0.72, -1.70, 1.99, 1.44, 6.93, suppf,
2022-12-01,-0.33, -3.25, -7.46, 2.00, 1.42, 6.92, suppf,
2022-12-02,-0.74, -2.91, -5.30, 1.99, 1.42, 6.90, suppf,
2022-12-03,-0.38, -1.78, -9.90, 2.00, 1.43, 6.93, suppf,
2022-12-04,-1.59, -1.58, -17.76, 2.01, 1.43, 6.96, suppf,
2022-12-05,-2.57, -1.70, -21.90, 1.99, 1.42, 6.88, suppf,
2022-12-06,-0.31, -1.64, -21.17, 2.02, 1.46, 6.97, suppf,
2022-12-07,-2.11, -1.38, -7.44, 1.99, 1.42, 6.92, suppf,
2022-12-08,-0.74, -1.68, -12.41, 2.00, 1.43, 7.00, suppf,
2022-12-09,-0.63, -3.19, -16.55, 1.99, 1.43, 6.92, suppf,
2022-12-10,0.92, -2.65, -11.49, 1.99, 1.43, 6.93, suppf,
2022-12-11,-0.49, -2.08, -10.82, 1.99, 1.43, 6.90, suppf,
2022-12-12,0.18, -1.20, -17.45, 1.99, 1.42, 6.90, suppf,
2022-12-13,-0.21, -1.18, -12.83, 2.03, 1.45, 7.04, suppf,
2022-12-14,0.64, -0.98, -22.13, 2.06, 1.46, 7.10, suppf,
2022-12-15,-0.10, -0.29, -20.37, 2.03, 1.46, 7.00, suppf,
2022-12-16,0.18, -0.27, -16.31, 1.98, 1.42, 6.86, suppf,
2022-12-17,0.51, -0.64, -19.19, 1.99, 1.43, 6.92, suppf,
2022-12-18,0.31, -0.17, -19.43, 2.01, 1.43, 6.97, suppf,
2022-12-19,0.13, -1.33, -19.43, 2.00, 1.43, 6.97, suppf,
2022-12-20,0.17, -0.49, -23.24, 2.05, 1.44, 7.09, suppf,
2022-12-21,1.57, -0.40, -25.60, 2.07, 1.45, 7.17, suppf,
2022-12-22,0.35, 0.90, -15.54, 1.99, 1.42, 6.91, suppf,
2022-12-23,-0.10, 0.55, -30.96, 2.03, 1.45, 7.08, suppf,
2022-12-24,-1.76, 0.53, -38.12, 2.01, 1.45, 7.08, suppf,
2022-12-25,1.04, -0.18, -25.96, 2.04, 1.46, 7.15, suppf,
2022-12-26,1.31, -0.89, -23.04, 2.01, 1.44, 7.04, suppf,
2022-12-27,-0.47, -0.67, -4.19, 2.11, 1.47, 7.31, suppf,
2022-12-28,0.24, -1.72, -14.20, 2.15, 1.49, 7.43, suppf,
2022-12-29,0.49, -0.66, -14.97, 2.00, 1.43, 6.95, suppf,
2022-12-30,-0.54, -0.78, -11.85, 2.03, 1.44, 7.06, suppf,
2022-12-31,-0.06, -0.29, -17.19, 2.01, 1.42, 6.95, suppf,
2023-01-01,-0.45, 0.67, -15.95, 1.99, 1.42, 6.86, suppf,
2023-01-02,0.53, 0.70, -15.95, 1.98, 1.42, 6.85, suppf,
2023-01-03,-0.26, -0.11, -15.79, 2.01, 1.43, 6.95, suppf,
2023-01-04,0.96, 0.29, -22.35, 2.02, 1.43, 6.95, suppf,
2023-01-05,1.25, -0.05, -18.32, 2.00, 1.42, 6.92, suppf,
2023-01-06,-0.00, -0.41, -13.96, 2.02, 1.44, 7.03, suppf,
2023-01-07,1.02, -0.10, -23.95, 1.99, 1.41, 6.86, suppf,
2023-01-08,1.65, -0.30, -16.28, 2.02, 1.44, 7.02, suppf,
2023-01-09,1.27, -0.20, -15.15, 2.03, 1.44, 7.04, suppf,
2023-01-10,1.08, 0.05, -20.01, 2.00, 1.41, 6.90, suppf,
2023-01-11,1.34, -0.18, -21.92, 2.07, 1.45, 7.10, suppf,
2023-01-12,1.34, 0.56, -21.84, 2.00, 1.42, 6.94, suppf,
2023-01-13,0.97, 0.48, -22.32, 2.00, 1.42, 6.94, suppf,
2023-01-14,0.98, -1.90, -16.17, 2.02, 1.44, 7.03, suppf,
2023-01-15,0.04, -1.49, -18.99, 2.63, 1.93, 9.38, suppf,
2023-01-16,1.05, -1.27, -14.79, 2.41, 1.75, 8.42, suppf,
2023-01-17,1.16, 0.40, -20.50, 2.00, 1.42, 6.90, suppf,
2023-01-18,1.73, 0.27, -18.12, 2.01, 1.43, 6.96, suppf,
2023-01-19,1.49, 0.50, -24.53, 2.02, 1.42, 6.96, suppf,
2023-01-20,1.14, 1.66, -28.66, 2.04, 1.46, 7.20, suppf,
2023-01-21,-0.52, -0.37, -18.96, 2.89, 2.15, 10.55, suppf,
2023-01-22,0.69, -0.21, -26.38, 2.04, 1.48, 7.22, suppf,
2023-01-23,1.45, 1.21, -26.97, 2.03, 1.47, 7.11, suppf,
2023-01-24,2.10, 0.90, -34.02, 2.06, 1.45, 7.08, suppf,
2023-01-25,1.12, 1.31, -36.18, 2.16, 1.48, 7.32, suppf,
2023-01-26,0.95, 1.44, -38.17, 2.15, 1.48, 7.24, suppf,
2023-01-27,2.25, 0.63, -26.92, 2.13, 1.49, 7.33, suppf,
2023-01-28,1.09, 0.72, -30.83, 2.06, 1.44, 7.04, suppf,
2023-01-29,1.42, -0.28, -32.16, 2.10, 1.48, 7.16, suppf,
2023-01-30,1.60, 1.06, -24.33, 2.14, 1.50, 7.39, suppf,
2023-01-31,0.71, 0.21, -27.12, 2.12, 1.48, 7.23, suppf,
2023-02-01,0.11, 0.95, -24.14, 2.11, 1.46, 7.12, suppf,
2023-02-02,1.23, 0.70, -29.87, 2.10, 1.47, 7.14, suppf,
2023-02-03,1.66, 0.66, -22.33, 2.07, 1.46, 7.14, suppf,
2023-02-04,0.34, -0.47, -22.98, 2.07, 1.45, 7.10, suppf,
2023-02-05,0.59, -0.74, -18.67, 2.07, 1.44, 7.07, suppf,
2023-02-06,0.18, 1.62, -24.98, 2.07, 1.44, 7.07, suppf,
2023-02-07,-0.31, -2.91, -29.79, 2.05, 1.44, 7.05, suppf,
2023-02-08,0.25, 0.18, -27.22, 2.07, 1.45, 7.14, suppf,
2023-02-09,0.40, -0.10, -29.06, 2.06, 1.44, 7.08, suppf,
2023-02-10,1.25, -1.31, -29.38, 2.08, 1.45, 7.14, suppf,
2023-02-11,0.96, -0.04, -27.16, 2.06, 1.44, 7.06, suppf,
2023-02-12,-0.40, -0.18, -26.93, 2.05, 1.44, 7.04, suppf,
2023-02-13,-0.31, -0.23, -23.97, 2.16, 1.47, 7.35, suppf,
2023-02-14,2.44, 0.06, -26.31, 2.17, 1.48, 7.37, suppf,
2023-02-15,0.69, -0.06, -23.41, 2.06, 1.44, 7.10, suppf,
2023-02-16,1.49, -0.22, -26.25, 2.11, 1.48, 7.32, suppf,
2023-02-17,1.39, 0.30, -29.72, 2.08, 1.47, 7.21, suppf,
2023-02-18,1.52, 0.37, -27.10, 2.06, 1.44, 7.08, suppf,
2023-02-19,0.28, 0.29, -21.85, 2.05, 1.44, 7.08, suppf,
2023-02-20,1.49, -0.56, -26.44, 2.05, 1.44, 7.05, suppf,
2023-02-21,-0.27, -1.06, -24.51, 2.07, 1.45, 7.15, suppf,
2023-02-22,1.47, -0.75, -24.59, 2.06, 1.44, 7.08, suppf,
2023-02-23,-1.02, -0.70, -30.11, 2.05, 1.43, 7.03, suppf,
2023-02-24,-1.31, 0.51, -32.55, 2.06, 1.43, 7.05, suppf,
2023-02-25,2.36, -0.82, -22.60, 2.05, 1.43, 7.02, suppf,
2023-02-26,1.68, -0.66, -19.36, 2.06, 1.44, 7.09, suppf,
2023-02-27,1.53, -1.83, -22.61, 2.07, 1.46, 7.17, suppf,
2023-02-28,-0.55, -2.29, -23.98, 2.11, 1.52, 7.29, suppf,
2023-03-01,0.90, 0.56, -21.81, 2.06, 1.44, 7.08, suppf,
2023-03-02,-0.62, -1.04, -25.96, 2.07, 1.44, 7.09, suppf,
2023-03-03,1.07, -1.59, -29.64, 2.06, 1.44, 7.09, suppf,
2023-03-04,1.30, -0.67, -26.40, 2.05, 1.44, 7.04, suppf,
2023-03-05,0.99, -1.36, -27.56, 2.07, 1.47, 7.24, suppf,
2023-03-06,0.58, -1.52, -33.23, 2.07, 1.45, 7.12, suppf,
2023-03-07,1.50, 0.57, -36.69, 2.06, 1.44, 7.07, suppf,
2023-03-08,2.16, 0.37, -39.35, 2.04, 1.44, 7.01, suppf,
2023-03-09,1.11, 0.29, -29.38, 2.07, 1.49, 7.18, suppf,
2023-03-10,1.88, -1.07, -25.62, 2.09, 1.50, 7.27, suppf,
2023-03-11,1.54, -0.43, -29.90, 2.07, 1.44, 7.08, suppf,
2023-03-12,1.88, -0.34, -32.82, 2.06, 1.44, 7.05, suppf,
2023-03-13,0.01, -0.62, -25.43, 2.06, 1.44, 7.05, suppf,
2023-03-14,0.55, -1.16, -29.18, 2.06, 1.44, 7.05, suppf,
2023-03-15,1.58, 0.13, -30.21, 2.06, 1.44, 7.06, suppf,
2023-03-16,0.96, 1.39, -33.11, 2.07, 1.44, 7.07, suppf,
2023-03-17,0.56, 1.21, -29.40, 2.07, 1.44, 7.07, suppf,
2023-03-18,0.82, 0.70, -35.16, 2.06, 1.44, 7.04, suppf,
2023-03-19,1.29, 0.19, -25.38, 2.03, 1.42, 7.02, suppf,
2023-03-20,0.45, -1.25, -30.58, 2.03, 1.42, 7.04, suppf,
2023-03-21,1.44, 0.62, -28.40, 2.03, 1.42, 7.02, suppf,
2023-03-22,0.97, 0.87, -27.53, 2.03, 1.42, 7.03, suppf,
2023-03-23,0.12, -2.07, -31.28, 2.05, 1.44, 7.16, suppf,
2023-03-24,0.67, -0.71, -42.67, 2.11, 1.47, 7.35, suppf,
2023-03-25,-0.91, 0.65, -37.65, 2.02, 1.41, 7.02, suppf,
2023-03-26,0.67, 0.38, -30.56, 2.02, 1.41, 7.02, final,
2023-03-27,1.00, 1.25, -36.20, 2.02, 1.41, 6.97, final,
2023-03-28,0.86, 0.43, -31.55, 2.02, 1.41, 6.99, final,
2023-03-29,1.63, 0.53, -29.43, 2.05, 1.45, 7.11, final,
